Location: Newark
(25.6108°S, 54.5803°W)
Time: 08:02:31
(UTC+00:00)

Courier 1B - Pass Details

Date: 31 October 2020
Orbit: 962 x 1209 km, 28.3° (Epoch: 02 December)

Event Time Altitude Azimuth Distance (km) Brightness Sun altitude
Rises 05:59:10 0° 257° (WSW) 4,106 - -34.7°
Reaches altitude 10° 06:02:02 10° 259° (W) 3,150 - -34.2°
Maximum altitude 06:09:52 68° 340° (NNW) 1,284 - -32.9°
Exits shadow 06:11:39 54° 37° (NE) 1,437 8.2 -32.6°
Drops below altitude 10° 06:17:34 10° 61° (ENE) 3,094 10.3 -31.5°
Sets 06:20:22 0° 63° (ENE) 4,028 11.0 -31.0°
